TAM3122 SBSP-SBRJ

Flight info

Callsign TAM3122
Flight time 0h 39m
Altitude 29000
Route BAIAN3A NIBRU UZ171 KEVUN ASALU1A
Aircraft A319/M-SDE3FGHIRWY/LB1

Departure

Time 2026-05-06 13:12
Airport Congonhas–Deputado Freitas Nobre Airport (SBSP)

Arrival

Time 2026-05-06 13:52
Airport Santos Dumont Airport (SBRJ)
Time Latitude Longitude Altitude Speed Heading
2026-05-06 13:00 -23.62629 -46.65888 2601 ft 0 kts 237°
2026-05-06 13:05 -23.62622 -46.65877 2601 ft 4 kts 243°
2026-05-06 13:06 -23.62615 -46.65850 2601 ft 4 kts 281°
2026-05-06 13:06 -23.62624 -46.65832 2601 ft 1 kts 327°
2026-05-06 13:08 -23.62622 -46.65833 2601 ft 2 kts 327°
2026-05-06 13:08 -23.62595 -46.65854 2601 ft 8 kts 323°
2026-05-06 13:09 -23.62528 -46.65900 2601 ft 13 kts 331°
2026-05-06 13:09 -23.62440 -46.65959 2601 ft 16 kts 328°
2026-05-06 13:09 -23.62346 -46.66023 2600 ft 15 kts 342°
2026-05-06 13:09 -23.62232 -46.66052 2600 ft 17 kts 346°
2026-05-06 13:10 -23.62157 -46.66100 2599 ft 12 kts 327°
2026-05-06 13:10 -23.62127 -46.66120 2599 ft 0 kts 328°
2026-05-06 13:10 -23.62113 -46.66129 2591 ft 5 kts 328°
2026-05-06 13:11 -23.62056 -46.66133 2589 ft 11 kts 22°
2026-05-06 13:11 -23.62061 -46.66066 2596 ft 9 kts 141°
2026-05-06 13:11 -23.62076 -46.66056 2596 ft 0 kts 149°
2026-05-06 13:12 -23.62102 -46.66038 2597 ft 24 kts 146°
2026-05-06 13:12 -23.62483 -46.65775 2604 ft 105 kts 147°
2026-05-06 13:12 -23.63299 -46.65208 2719 ft 158 kts 145°
2026-05-06 13:12 -23.64228 -46.64555 3477 ft 161 kts 144°
2026-05-06 13:13 -23.65000 -46.63654 4110 ft 175 kts 114°
2026-05-06 13:13 -23.65518 -46.62350 4672 ft 201 kts 115°
2026-05-06 13:13 -23.66201 -46.60913 5335 ft 227 kts 117°
2026-05-06 13:13 -23.67005 -46.59313 6039 ft 252 kts 118°
2026-05-06 13:14 -23.67892 -46.57570 6888 ft 268 kts 118°
2026-05-06 13:14 -23.68809 -46.55770 7867 ft 274 kts 118°
2026-05-06 13:14 -23.69731 -46.53954 8863 ft 279 kts 117°
2026-05-06 13:14 -23.70681 -46.52071 9872 ft 285 kts 117°
2026-05-06 13:15 -23.71480 -46.50069 10806 ft 290 kts 105°
2026-05-06 13:15 -23.71812 -46.47823 11297 ft 313 kts 90°
2026-05-06 13:15 -23.71558 -46.45406 11928 ft 326 kts 80°
2026-05-06 13:15 -23.71179 -46.42940 12771 ft 333 kts 81°
2026-05-06 13:16 -23.70810 -46.40425 13638 ft 338 kts 82°
2026-05-06 13:16 -23.70444 -46.37864 14440 ft 344 kts 82°
2026-05-06 13:16 -23.70079 -46.35262 15198 ft 349 kts 82°
2026-05-06 13:16 -23.69710 -46.32620 15940 ft 355 kts 82°
2026-05-06 13:17 -23.69334 -46.29935 16693 ft 360 kts 82°
2026-05-06 13:17 -23.68953 -46.27244 17424 ft 366 kts 82°
2026-05-06 13:17 -23.68560 -46.24477 18146 ft 371 kts 82°
2026-05-06 13:17 -23.68160 -46.21680 18790 ft 376 kts 82°
2026-05-06 13:18 -23.67749 -46.18844 19403 ft 381 kts 82°
2026-05-06 13:18 -23.67333 -46.15970 20005 ft 385 kts 82°
2026-05-06 13:18 -23.66914 -46.13061 20590 ft 389 kts 82°
2026-05-06 13:18 -23.66494 -46.10126 21165 ft 393 kts 82°
2026-05-06 13:19 -23.66074 -46.07167 21725 ft 397 kts 82°
2026-05-06 13:19 -23.65648 -46.04166 22283 ft 401 kts 82°
2026-05-06 13:19 -23.65218 -46.01139 22819 ft 405 kts 82°
2026-05-06 13:19 -23.64785 -45.98123 23355 ft 409 kts 82°
2026-05-06 13:20 -23.64342 -45.95040 23890 ft 412 kts 82°
2026-05-06 13:20 -23.63890 -45.91892 24375 ft 416 kts 82°
2026-05-06 13:20 -23.63431 -45.88709 24842 ft 419 kts 83°
2026-05-06 13:20 -23.62972 -45.85552 25300 ft 423 kts 83°
2026-05-06 13:21 -23.62513 -45.82411 25748 ft 426 kts 83°
2026-05-06 13:21 -23.62044 -45.79209 26198 ft 429 kts 83°
2026-05-06 13:21 -23.61570 -45.75967 26647 ft 432 kts 83°
2026-05-06 13:21 -23.61095 -45.72713 27102 ft 435 kts 83°
2026-05-06 13:22 -23.60618 -45.69445 27533 ft 438 kts 83°
2026-05-06 13:22 -23.60137 -45.66148 27967 ft 441 kts 84°
2026-05-06 13:22 -23.59652 -45.62832 28417 ft 444 kts 84°
2026-05-06 13:22 -23.59165 -45.59495 28849 ft 447 kts 84°
2026-05-06 13:23 -23.58675 -45.56136 29157 ft 450 kts 84°
2026-05-06 13:23 -23.58186 -45.52800 29220 ft 439 kts 84°
2026-05-06 13:23 -23.57703 -45.49561 29220 ft 424 kts 84°
2026-05-06 13:23 -23.57228 -45.46439 29222 ft 411 kts 83°
2026-05-06 13:24 -23.56680 -45.43410 29222 ft 404 kts 81°
2026-05-06 13:24 -23.55409 -45.37503 29223 ft 402 kts 79°
2026-05-06 13:25 -23.54078 -45.31583 29212 ft 401 kts 79°
2026-05-06 13:25 -23.52791 -45.25645 29222 ft 400 kts 80°
2026-05-06 13:26 -23.51541 -45.19701 29224 ft 414 kts 80°
2026-05-06 13:26 -23.50892 -45.16581 29221 ft 429 kts 79°
2026-05-06 13:26 -23.50220 -45.13380 29213 ft 442 kts 79°
2026-05-06 13:27 -23.49035 -45.07840 29209 ft 449 kts 79°
2026-05-06 13:27 -23.47612 -45.01279 28686 ft 445 kts 79°
2026-05-06 13:27 -23.46903 -44.98010 28166 ft 441 kts 79°
2026-05-06 13:28 -23.46203 -44.94762 27657 ft 436 kts 79°
2026-05-06 13:28 -23.45515 -44.91588 27156 ft 432 kts 78°
2026-05-06 13:28 -23.44817 -44.88409 26663 ft 428 kts 78°
2026-05-06 13:28 -23.44119 -44.85274 26179 ft 424 kts 78°
2026-05-06 13:29 -23.43419 -44.82151 25690 ft 421 kts 78°
2026-05-06 13:29 -23.42726 -44.79057 25236 ft 417 kts 77°
2026-05-06 13:29 -23.42042 -44.76000 24769 ft 415 kts 77°
2026-05-06 13:29 -23.41370 -44.72992 24322 ft 412 kts 77°
2026-05-06 13:30 -23.40696 -44.69965 23873 ft 410 kts 77°
2026-05-06 13:30 -23.40024 -44.66950 23362 ft 407 kts 77°
2026-05-06 13:30 -23.39357 -44.63958 22841 ft 404 kts 77°
2026-05-06 13:30 -23.38695 -44.60995 22332 ft 401 kts 77°
2026-05-06 13:31 -23.38034 -44.58056 21830 ft 398 kts 77°
2026-05-06 13:31 -23.37378 -44.55139 21336 ft 394 kts 77°
2026-05-06 13:31 -23.36738 -44.52284 20852 ft 391 kts 77°
2026-05-06 13:31 -23.36096 -44.49417 20376 ft 387 kts 77°
2026-05-06 13:32 -23.35458 -44.46582 19905 ft 383 kts 77°
2026-05-06 13:32 -23.34828 -44.43788 19392 ft 375 kts 77°
2026-05-06 13:32 -23.34014 -44.41137 18889 ft 364 kts 66°
2026-05-06 13:32 -23.32953 -44.38674 18384 ft 354 kts 66°
2026-05-06 13:33 -23.31918 -44.36271 17816 ft 345 kts 66°
2026-05-06 13:33 -23.30923 -44.33953 17266 ft 338 kts 66°
2026-05-06 13:33 -23.29936 -44.31646 16717 ft 333 kts 66°
2026-05-06 13:33 -23.28961 -44.29373 16189 ft 329 kts 66°
2026-05-06 13:34 -23.27994 -44.27127 15647 ft 327 kts 66°
2026-05-06 13:34 -23.27021 -44.24866 15086 ft 331 kts 65°
2026-05-06 13:34 -23.26040 -44.22593 14535 ft 334 kts 65°
2026-05-06 13:34 -23.25050 -44.20294 13981 ft 335 kts 65°
2026-05-06 13:35 -23.24073 -44.18020 13370 ft 336 kts 65°
2026-05-06 13:35 -23.23085 -44.15718 12751 ft 331 kts 65°
2026-05-06 13:35 -23.22121 -44.13477 12157 ft 322 kts 65°
2026-05-06 13:35 -23.21174 -44.11287 11536 ft 315 kts 65°
2026-05-06 13:36 -23.20256 -44.09171 10921 ft 310 kts 65°
2026-05-06 13:36 -23.19336 -44.07069 10388 ft 304 kts 64°
2026-05-06 13:36 -23.18409 -44.05028 10223 ft 294 kts 64°
2026-05-06 13:36 -23.17498 -44.03059 10188 ft 289 kts 64°
2026-05-06 13:37 -23.16591 -44.01109 10192 ft 289 kts 64°
2026-05-06 13:37 -23.15686 -43.99159 10198 ft 289 kts 64°
2026-05-06 13:37 -23.14812 -43.97193 10199 ft 288 kts 65°
2026-05-06 13:37 -23.13963 -43.95211 10200 ft 288 kts 66°
2026-05-06 13:38 -23.13132 -43.93247 10204 ft 288 kts 66°
2026-05-06 13:38 -23.12292 -43.91259 10111 ft 289 kts 66°
2026-05-06 13:38 -23.11458 -43.89282 9923 ft 286 kts 66°
2026-05-06 13:38 -23.10650 -43.87377 9744 ft 270 kts 66°
2026-05-06 13:39 -23.09869 -43.85551 9564 ft 264 kts 65°
2026-05-06 13:39 -23.09095 -43.83750 9389 ft 262 kts 66°
2026-05-06 13:39 -23.08331 -43.81966 9218 ft 261 kts 66°
2026-05-06 13:39 -23.07563 -43.80172 9052 ft 262 kts 66°
2026-05-06 13:40 -23.06794 -43.78377 8878 ft 260 kts 66°
2026-05-06 13:40 -23.06029 -43.76594 8713 ft 259 kts 66°
2026-05-06 13:40 -23.05268 -43.74822 8532 ft 258 kts 65°
2026-05-06 13:40 -23.04510 -43.73056 8361 ft 255 kts 65°
2026-05-06 13:41 -23.03768 -43.71323 8209 ft 249 kts 66°
2026-05-06 13:41 -23.03054 -43.69654 8053 ft 246 kts 66°
2026-05-06 13:41 -23.02327 -43.67975 7810 ft 244 kts 65°
2026-05-06 13:41 -23.01598 -43.66306 7567 ft 243 kts 65°
2026-05-06 13:42 -23.00873 -43.64652 7332 ft 242 kts 65°
2026-05-06 13:42 -23.00151 -43.63007 7114 ft 240 kts 65°
2026-05-06 13:42 -22.99422 -43.61354 7009 ft 239 kts 65°
2026-05-06 13:42 -22.98701 -43.59723 6880 ft 240 kts 65°
2026-05-06 13:43 -22.97981 -43.58092 6696 ft 239 kts 65°
2026-05-06 13:43 -22.97266 -43.56472 6504 ft 238 kts 65°
2026-05-06 13:43 -22.96556 -43.54860 6292 ft 237 kts 65°
2026-05-06 13:43 -22.95849 -43.53246 6113 ft 236 kts 65°
2026-05-06 13:44 -22.95143 -43.51637 6011 ft 237 kts 65°
2026-05-06 13:44 -22.94435 -43.50020 6007 ft 236 kts 66°
2026-05-06 13:44 -22.93737 -43.48382 5692 ft 236 kts 66°
2026-05-06 13:44 -22.93066 -43.46787 5356 ft 228 kts 66°
2026-05-06 13:45 -22.92412 -43.45230 5015 ft 223 kts 66°
2026-05-06 13:45 -22.91160 -43.42274 4599 ft 210 kts 65°
2026-05-06 13:45 -22.90552 -43.40842 4332 ft 208 kts 65°
2026-05-06 13:46 -22.89946 -43.39415 4064 ft 207 kts 66°
2026-05-06 13:46 -22.89344 -43.37991 3798 ft 204 kts 65°
2026-05-06 13:46 -22.88765 -43.36623 3568 ft 200 kts 65°
2026-05-06 13:46 -22.88368 -43.35232 3512 ft 188 kts 80°
2026-05-06 13:47 -22.88318 -43.33821 3518 ft 187 kts 92°
2026-05-06 13:47 -22.88370 -43.32413 3416 ft 187 kts 91°
2026-05-06 13:47 -22.88417 -43.31002 3249 ft 187 kts 91°
2026-05-06 13:47 -22.88463 -43.29591 3082 ft 188 kts 91°
2026-05-06 13:48 -22.88508 -43.28179 2915 ft 188 kts 91°
2026-05-06 13:48 -22.88564 -43.26764 2745 ft 185 kts 95°
2026-05-06 13:48 -22.88928 -43.25450 2594 ft 177 kts 112°
2026-05-06 13:48 -22.89387 -43.24230 2309 ft 176 kts 111°
2026-05-06 13:49 -22.89842 -43.23007 2080 ft 173 kts 111°
2026-05-06 13:49 -22.90290 -43.21804 1847 ft 170 kts 111°
2026-05-06 13:49 -22.90870 -43.20689 1652 ft 165 kts 129°
2026-05-06 13:49 -22.91674 -43.19937 1439 ft 145 kts 148°
2026-05-06 13:50 -22.92570 -43.19524 1269 ft 137 kts 163°
2026-05-06 13:50 -22.93505 -43.19362 1091 ft 134 kts 169°
2026-05-06 13:50 -22.94303 -43.18857 937 ft 134 kts 130°
2026-05-06 13:50 -22.94673 -43.17956 772 ft 132 kts 95°
2026-05-06 13:51 -22.94493 -43.16990 611 ft 132 kts 59°
2026-05-06 13:51 -22.93846 -43.16325 428 ft 130 kts 26°
2026-05-06 13:51 -22.92969 -43.16159 269 ft 129 kts 352°
2026-05-06 13:51 -22.92081 -43.16216 140 ft 129 kts 354°
2026-05-06 13:52 -22.91481 -43.16256 31 ft 126 kts 353°
2026-05-06 13:52 -22.90855 -43.16300 28 ft 59 kts
2026-05-06 13:52 -22.90572 -43.16315 28 ft 18 kts 356°
2026-05-06 13:52 -22.90492 -43.16374 27 ft 10 kts 276°
2026-05-06 13:53 -22.90495 -43.16453 29 ft 11 kts 271°
2026-05-06 13:53 -22.90509 -43.16545 30 ft 13 kts 223°
2026-05-06 13:53 -22.90604 -43.16552 30 ft 16 kts 178°
2026-05-06 13:53 -22.90702 -43.16548 30 ft 13 kts 177°
2026-05-06 13:54 -22.90798 -43.16543 30 ft 15 kts 186°
2026-05-06 13:54 -22.90912 -43.16546 30 ft 18 kts 178°
2026-05-06 13:54 -22.91042 -43.16536 30 ft 20 kts 175°
2026-05-06 13:54 -22.91192 -43.16513 30 ft 23 kts 176°
2026-05-06 13:55 -22.91274 -43.16524 30 ft 11 kts 234°
2026-05-06 13:55 -22.91280 -43.16565 30 ft 2 kts 270°
2026-05-06 13:55 -22.91280 -43.16574 30 ft 0 kts 268°